English version Home page |
Updated on April 6, 2013 |
|
軌道要素Epoch 2010 Mar. 25.0 TT = JDT 2455280.5 T 2010 Mar. 27.92184 TT MPC q 4.9028437 (2000.0) P Q n 0.05738981 Peri. 88.82648 +0.97367165 -0.17951065 a 6.6565036 Node 281.50271 +0.10559760 +0.90140645 e 0.2634506 Incl. 8.24329 +0.20202143 +0.39400805 P 17.2 From 109 observations 2009 Sept. 17-2011 Dec. 28, mean residual 0".5.
|
光度変化m1 = 9.0 + 5 logΔ + 10.0 log r
|
軌道要素はM.P.E.C. 2013-B90に掲載されたものです。
|